Weather History for LIVT - November, 2012

Change the Weather History Date:

Thursday, November 29, 2012

  Actual Average Record
Temperature  
Mean Temperature 56 °F -  
Max Temperature 60 °F 47 °F 65 °F (2014)
Min Temperature 51 °F 40 °F 34 °F (2013)
Degree Days  
Heating Degree Days 10    
Growing Degree Days 6 (Base 50)    
Moisture  
Dew Point 45 °F    
Average Humidity 69    
Maximum Humidity 77    
Minimum Humidity 58    
Precipitation  
Precipitation 0.00 in 0.12 in - ()
Sea Level Pressure  
Sea Level Pressure 29.29 in    
Wind  
Wind Speed 7 mph ()    
Max Wind Speed 23 mph    
Max Gust Speed 48 mph    
Visibility 7.1 miles    
Events Rain    
Averages and records for this station are not official NWS values.
T = Trace of Precipitation, MM = Missing Value Source: Averaged Metar Reports

Daily Weather History Graph

Daily Weather History Graph

Search for Another Location

Airport or City:

Trip Planner

Search our weather history database for the weather conditions in past years. The results will help you decide how hot, cold, wet, or windy it might be!

Date:

Astronomy

Nov. 29, 2012 Rise Set
Actual Time 7:23 AM CET 4:23 PM CET
Civil Twilight 6:49 AM CET 4:56 PM CET
Nautical Twilight 6:12 AM CET 5:33 PM CET
Astronomical Twilight 5:36 AM CET 6:09 PM CET
Moon 5:11 PM CET (11/29) 7:56 AM CET (11/29)
Length of Visible Light 10h 07m
Length of Day
9h 00m
Full, 99% of the Moon is Illuminated
Nov 29
Full
Dec 6
Last Quarter
Dec 13
New
Dec 20
First Quarter
Dec 28
Full

Hourly Weather History & Observations

Time (CET) Temp. Dew Point Humidity Pressure Visibility Wind Dir Wind Speed Gust Speed Precip Events Conditions
12:55 AM 53.6 °F 46.4 °F 77% 29.30 in - East 6.9 mph - N/A   Clear
1:00 AM 54 °F 46 °F 65% 29.31 in 6 mi East 6.9 mph - -   Partly Cloudy
1:55 AM 53.6 °F 44.6 °F 72% 29.30 in - East 5.8 mph - N/A   Clear
2:55 AM 53.6 °F 46.4 °F 77% 29.27 in - East 4.6 mph - N/A   Clear
3:55 AM 53.6 °F 46.4 °F 77% 29.27 in - East 4.6 mph - N/A   Clear
4:55 AM 53.6 °F 44.6 °F 72% 29.27 in - ESE 5.8 mph - N/A   Clear
5:55 AM 53.6 °F 44.6 °F 72% 29.27 in - East 4.6 mph - N/A   Clear
6:55 AM 53.6 °F 44.6 °F 72% 29.27 in 6.2 mi East 5.8 mph - N/A   Partly Cloudy
7:00 AM 54 °F 44 °F 60% 29.28 in 12 mi East 5.8 mph - -   Scattered Clouds
7:55 AM 53.6 °F 42.8 °F 67% 29.27 in 6.2 mi East 5.8 mph - N/A   Scattered Clouds
9:55 AM 55.4 °F 44.6 °F 67% 29.30 in 6.2 mi ESE 8.1 mph - N/A   Mostly Cloudy
10:55 AM 57.2 °F 44.6 °F 63% 29.30 in 6.2 mi ESE 4.6 mph - N/A   Mostly Cloudy
11:55 AM 59.0 °F 46.4 °F 63% 29.30 in 6.2 mi SSE 6.9 mph - N/A   Mostly Cloudy
12:55 PM 57.2 °F 48.2 °F 72% 29.27 in 6.2 mi SSW 8.1 mph - N/A   Mostly Cloudy
1:00 PM 57 °F 47 °F 62% 29.30 in 12 mi SSW 8.1 mph - -   Mostly Cloudy
1:55 PM 57.2 °F 46.4 °F 67% 29.27 in 6.2 mi SW 5.8 mph - N/A   Mostly Cloudy
2:55 PM 57.2 °F 48.2 °F 72% 29.27 in 6.2 mi WNW 3.5 mph - N/A   Scattered Clouds
3:55 PM 55.4 °F 46.4 °F 72% 29.27 in 6.2 mi ENE 6.9 mph - N/A   Mostly Cloudy
4:55 PM 51.8 °F 44.6 °F 76% 29.27 in 6.2 mi ENE 6.9 mph - N/A   Partly Cloudy
5:55 PM 53.6 °F 46.4 °F 77% 29.30 in - ENE 9.2 mph - N/A   Clear
6:55 PM 53.6 °F 44.6 °F 72% 29.27 in 6.2 mi East 8.1 mph - N/A   Scattered Clouds
7:00 PM 53 °F 44 °F 64% 29.30 in 12 mi East 8.1 mph - -   Partly Cloudy
7:55 PM 53.6 °F 42.8 °F 67% 29.27 in 6.2 mi East 9.2 mph - N/A Rain Rain
8:55 PM 53.6 °F 42.8 °F 67% 29.27 in 6.2 mi ENE 15.0 mph - N/A   Scattered Clouds
9:55 PM 51.8 °F 42.8 °F 71% 29.30 in 6.2 mi ENE 15.0 mph 31.1 mph N/A   Partly Cloudy
10:55 PM 51.8 °F 39.2 °F 62% 29.30 in 6.2 mi ENE 23.0 mph 44.9 mph N/A   Partly Cloudy
11:55 PM 51.8 °F 37.4 °F 58% 29.33 in - ENE 23.0 mph 48.3 mph N/A   Clear